Regional Weather Roundup
Issued by NWS

Home | Current Version | Previous Version | Text Only | Print | Product List | Glossary On
Versions: 1 2 3 4 5 6 7 8 9 10 11 12 13 14 15 16 17 18 19 20 21 22 23 24 25 26 27 28 29 30 31 32 33 34 35 36 37 38 39 40 41 42 43 44 45 46 47 48 49 50
000
ASUS44 KOUN 302110
RWROK

WEATHER ROUNDUP FOR OKLAHOMA
NATIONAL WEATHER SERVICE NORMAN OK
400 PM CDT THU JUL 30 2015

NOTE: "FAIR" INDICATES FEW OR NO CLOUDS BELOW 12,000 FEET WITH NO
      SIGNIFICANT WEATHER AND/OR OBSTRUCTIONS TO VISIBILITY.

OKZ001>007-009>012-014-015-017-302200-
NORTHWEST OKLAHOMA AND THE PANHANDLE

CITY           SKY/WX    TMP DP  RH WIND       PRES   REMARKS
GAGE           CLOUDY    84  70  62 S7        30.19F
GUYMON         PTSUNNY   81  68  64 E8        30.23F
ENID/WOODRING  PTSUNNY   77  72  83 NE12      30.14F
$$

OKZ016-021>023-033>039-044-045-302200-
SOUTHWEST OKLAHOMA

CITY           SKY/WX    TMP DP  RH WIND       PRES   REMARKS
LAWTON/REGL    SUNNY     98  69  38 N18G24    30.07F HX 104
LAWTON/FT SILL MOSUNNY   94  75  53 N22G28    30.07F HX 104
FREDERICK      SUNNY     98  70  40 NE15G25   30.05F HX 105
CLINTON        PTSUNNY   84  69  60 NE13      30.18F
HOBART         MOSUNNY   93  69  45 NE16      30.13F HX  98
ALTUS AFB      SUNNY     95  67  39 NE20G28   30.10F HX  99
$$

OKZ018>020-024>031-302200-
CENTRAL OKLAHOMA

CITY           SKY/WX    TMP DP  RH WIND       PRES   REMARKS
OKLAHOMA CITY  PTSUNNY   89  73  59 NE9       30.12F HX  97
OKC/WILEY POST MOSUNNY   90  72  55 N14       30.14F HX  97
OKC/TINKER AFB MOSUNNY   87  73  62 N12       30.13F HX  94
STILLWATER     CLOUDY    85  70  60 NE12      30.14F
GUTHRIE        PTSUNNY   87  69  54 N10G16    30.14F HX  91
$$

OKZ008-013-054>072-302200-
NORTHEAST OKLAHOMA

CITY           SKY/WX    TMP DP  RH WIND       PRES   REMARKS
TULSA          PTSUNNY   88  73  61 NE14      30.10F HX  95
TULSA/JONES    PTSUNNY   90  75  61 N6        30.10F HX 100
PONCA CITY     PTSUNNY   81  70  69 NE7       30.15F
BARTLESVILLE   CLOUDY    85  73  67 NE7       30.14F HX  91
MUSKOGEE       LGT RAIN  76  71  85 N9        30.11F
$$

OKZ032-040>043-046>053-073>077-302200-
SOUTH CENTRAL/SOUTHEAST OKLAHOMA

CITY           SKY/WX    TMP DP  RH WIND       PRES   REMARKS
ARDMORE/DWNTWN MOSUNNY   97  59  28 S5        30.06F HX  96
MCALESTER      PTSUNNY   95  74  50 N9        30.06F HX 105
$$




USA.gov is the U.S. government's official web portal to all federal, state and local government web resources and services.